This demonstration page uses our WeatherBlox Daily Observations layout. Learn more.

Left ArrowRight Arrow

39.92423, -83.80882

Hourly Observations for January 3, 2022

Temp ( °F °C ) Dew Point ( °F °C ) Humidity (%) Winds ( mph kmh ) Pressure ( in mb ) Visibility ( mi km ) Precip ( " mm )
12:56 am 00:56 Cloudy 24 -4.4 23 -5 96 96 N 12 19 30.24 1024 10 16 0.00 0.00
1:56 am 01:56 Cloudy 24 -4.4 23 -5 96 96 N 14 22 30.24 1024 10 16 0.00 0.00
2:56 am 02:56 Cloudy 23 -5 21 -6.1 92 92 NNE 10 17 30.23 1024 10 16 0.00 0.00
3:35 am 03:35 Cloudy 23 -5 19 -7 86 86 N 14 22 30.28 1025 10 16 0.00 0.00
3:56 am 03:56 Cloudy 23 -5 19 -7.2 85 85 NNE 13 20 30.24 1024 10 16 0.00 0.00
4:56 am 04:56 Partly Cloudy 21 -6.1 19 -7.2 92 92 N 15 24 30.23 1024 10 16 0.00 0.00
5:56 am 05:56 Clear 20 -6.7 18 -7.8 92 92 N 8 13 30.28 1025 10 16 0.00 0.00
6:31 am 06:31 Mostly Cloudy 19 -7 18 -8 93 93 N 8 13 30.34 1027 10 16 0.00 0.00
6:56 am 06:56 Cloudy 20 -6.7 18 -7.8 92 92 N 9 15 30.30 1026 10 16 0.00 0.00
7:56 am 07:56 Partly Cloudy 19 -7.2 17 -8.3 92 92 N 8 13 30.32 1027 10 16 0.00 0.00
8:56 am 08:56 Sunny 20 -6.7 17 -8.3 89 89 N 10 17 30.35 1028 10 16 0.00 0.00
9:56 am 09:56 Sunny 23 -5 17 -8.3 78 78 N 10 17 30.37 1029 10 16 0.00 0.00
10:56 am 10:56 Sunny 24 -4.4 16 -8.9 71 71 N 7 11 30.39 1029 10 16 0.00 0.00
11:56 am 11:56 Mostly Sunny 25 -3.9 16 -8.9 69 69 NE 5 7 30.39 1029 10 16 0.00 0.00
12:09 pm 12:09 Mostly Cloudy 27 -3 18 -8 69 69 NW 5 7 30.41 1030 10 16 0.00 0.00
12:39 pm 12:39 Partly Cloudy 27 -3 18 -8 69 69 N 6 9 30.39 1029 10 16 0.00 0.00
12:56 pm 12:56 Mostly Sunny 27 -2.8 17 -8.3 66 66 Calm 30.37 1028 10 16 0.00 0.00
1:56 pm 13:56 Sunny 28 -2.2 17 -8.3 63 63 NW 7 11 30.36 1028 10 16 0.00 0.00
2:56 pm 14:56 Sunny 29 -1.7 18 -7.8 63 63 WNW 10 17 30.37 1028 10 16 0.00 0.00
3:56 pm 15:56 Sunny 30 -1.1 20 -6.7 66 66 WNW 9 15 30.38 1029 10 16 0.00 0.00
4:56 pm 16:56 Sunny 29 -1.7 20 -6.7 69 69 WNW 6 9 30.38 1029 10 16 0.00 0.00
5:56 pm 17:56 Clear 26 -3.3 21 -6.1 81 81 W 5 7 30.39 1029 10 16 0.00 0.00
6:56 pm 18:56 Clear 25 -3.9 20 -6.7 81 81 W 6 9 30.42 1030 10 16 0.00 0.00
7:56 pm 19:56 Clear 23 -5 21 -6.1 92 92 WSW 5 7 30.42 1030 10 16 0.00 0.00
8:56 pm 20:56 Clear 24 -4.4 20 -6.7 84 84 SW 3 6 30.41 1030 10 16 0.00 0.00
9:56 pm 21:56 Clear 22 -5.6 21 -6.1 96 96 SW 3 6 30.42 1030 10 16 0.00 0.00
10:56 pm 22:56 Clear 23 -5 20 -6.7 88 88 SSW 5 7 30.42 1030 10 16 0.00 0.00
11:56 pm 23:56 Clear 21 -6.1 20 -6.7 96 96 SW 5 7 30.42 1030 10 16 0.00 0.00

Powered by AerisWeather